| time (UTC) | temp F | wind direction | speed knots | gust knots | rain 1hr in | rain 24hr in | rain mn in | humidity % | barometer mb |
| 20260504211553 | 69 | 5 | 2.6 | 10.4 | 0.00 | 0.00 | 0.00 | 24 | 1004.2 |
| 20260504210054 | 68 | 340 | 4.3 | 8.7 | 0.00 | 0.00 | 0.00 | 24 | 1004.0 |
| 20260504204601 | 68 | 360 | 6.1 | 12.2 | 0.00 | 0.00 | 0.00 | 25 | 1004.0 |
| 20260504203100 | 69 | 284 | 5.2 | 13.0 | 0.00 | 0.00 | 0.00 | 24 | 1004.1 |
| 20260504201553 | 69 | 18 | 0.9 | 11.3 | 0.00 | 0.00 | 0.00 | 26 | 1004.0 |
| 20260504200054 | 68 | 284 | 4.3 | 16.5 | 0.00 | 0.00 | 0.00 | 24 | 1004.3 |
| 20260504194554 | 69 | 351 | 4.3 | 11.3 | 0.00 | 0.00 | 0.00 | 25 | 1004.4 |
| 20260504193058 | 68 | 355 | 5.2 | 12.2 | 0.00 | 0.00 | 0.00 | 25 | 1004.5 |
| 20260504191600 | 67 | 335 | 5.2 | 13.9 | 0.00 | 0.00 | 0.00 | 26 | 1004.5 |
| 20260504184555 | 67 | 348 | 6.1 | 13.0 | 0.00 | 0.00 | 0.00 | 26 | 1004.9 |
| 20260504183052 | 66 | 323 | 2.6 | 9.6 | 0.00 | 0.00 | 0.00 | 27 | 1004.8 |
| 20260504181601 | 66 | 301 | 3.5 | 13.0 | 0.00 | 0.00 | 0.00 | 28 | 1004.9 |
| 20260504180114 | 66 | 5 | 7.0 | 14.8 | 0.00 | 0.00 | 0.00 | 26 | 1004.9 |
| 20260504174553 | 67 | 338 | 3.5 | 13.0 | 0.00 | 0.00 | 0.00 | 27 | 1004.8 |
| 20260504173054 | 66 | 277 | 4.3 | 14.8 | 0.00 | 0.00 | 0.00 | 27 | 1004.9 |
| 20260504171558 | 66 | 342 | 6.1 | 15.6 | 0.00 | 0.00 | 0.00 | 26 | 1004.8 |
| 20260504160107 | 64 | 294 | 3.5 | 14.8 | 0.00 | 0.00 | 0.00 | 26 | 1005.0 |
| 20260504081552 | 44 | 0 | 0.0 | 2.6 | 0.00 | 0.02 | 0.00 | 51 | 1007.6 |
| 20260504050105 | 44 | 286 | 1.7 | 7.0 | 0.00 | 0.02 | 0.00 | 41 | 1007.4 |
| 20260504044559 | 44 | 298 | 2.6 | 7.8 | 0.00 | 0.02 | 0.00 | 42 | 1007.4 |
| 20260504043055 | 44 | 182 | 2.6 | 8.7 | 0.00 | 0.02 | 0.00 | 43 | 1007.5 |
| 20260504041600 | 43 | 274 | 2.6 | 7.8 | 0.00 | 0.02 | 0.00 | 45 | 1007.4 |
| 20260504040058 | 42 | 272 | 0.9 | 5.2 | 0.00 | 0.02 | 0.00 | 48 | 1007.3 |
| 20260504034557 | 41 | 0 | 0.9 | 7.0 | 0.00 | 0.02 | 0.02 | 50 | 1007.3 |
| 20260504033053 | 39 | 278 | 0.9 | 2.6 | 0.00 | 0.02 | 0.02 | 54 | 1007.3 |
| 20260504031552 | 38 | 278 | 0.9 | 5.2 | 0.00 | 0.02 | 0.02 | 57 | 1007.3 |
| 20260504030057 | 37 | 0 | 0.0 | 0.0 | 0.00 | 0.02 | 0.02 | 62 | 1007.4 |
| 20260504024608 | 37 | 0 | 0.0 | 0.0 | 0.00 | 0.03 | 0.02 | 62 | 1007.5 |
| 20260504023055 | 38 | 0 | 0.0 | 3.5 | 0.00 | 0.03 | 0.02 | 60 | 1007.4 |
| 20260504021557 | 40 | 0 | 0.0 | 3.5 | 0.00 | 0.03 | 0.02 | 58 | 1007.3 |
| 20260504020054 | 40 | 0 | 0.0 | 2.6 | 0.00 | 0.03 | 0.02 | 56 | 1007.4 |
| 20260504014604 | 41 | 0 | 0.0 | 3.5 | 0.00 | 0.03 | 0.02 | 53 | 1007.3 |
| 20260504013057 | 41 | 0 | 0.0 | 3.5 | 0.00 | 0.03 | 0.02 | 55 | 1007.4 |
| 20260504011555 | 41 | 0 | 0.0 | 2.6 | 0.00 | 0.03 | 0.02 | 54 | 1007.4 |
| 20260504004552 | 44 | 309 | 0.0 | 4.3 | 0.00 | 0.03 | 0.02 | 47 | 1007.0 |
| 20260504003053 | 45 | 0 | 1.7 | 7.8 | 0.00 | 0.03 | 0.02 | 40 | 1006.8 |
| 20260504001552 | 46 | 352 | 2.6 | 7.8 | 0.00 | 0.03 | 0.02 | 38 | 1006.8 |
| 20260504000137 | 46 | 327 | 1.7 | 7.8 | 0.00 | 0.03 | 0.02 | 38 | 1006.4 |
| 20260503234602 | 47 | 351 | 2.6 | 10.4 | 0.00 | 0.05 | 0.02 | 37 | 1006.3 |
| 20260503233053 | 47 | 355 | 4.3 | 8.7 | 0.00 | 0.05 | 0.02 | 39 | 1005.9 |
| 20260503231553 | 48 | 329 | 1.7 | 7.8 | 0.00 | 0.05 | 0.02 | 40 | 1005.9 |
| 20260503230051 | 48 | 355 | 5.2 | 13.0 | 0.00 | 0.05 | 0.02 | 35 | 1005.8 |
| 20260503224549 | 49 | 351 | 0.9 | 8.7 | 0.00 | 0.09 | 0.02 | 42 | 1005.8 |
| 20260503223054 | 49 | 311 | 3.5 | 12.2 | 0.00 | 0.09 | 0.02 | 41 | 1005.8 |
| 20260503221558 | 49 | 338 | 4.3 | 10.4 | 0.00 | 0.09 | 0.02 | 40 | 1005.5 |
| 20260503220056 | 49 | 348 | 3.5 | 11.3 | 0.00 | 0.09 | 0.02 | 38 | 1005.5 |
| 20260503214551 | 48 | 350 | 3.5 | 7.0 | 0.00 | 0.10 | 0.02 | 41 | 1005.4 |
| 20260503213051 | 49 | 9 | 5.2 | 17.4 | 0.00 | 0.10 | 0.02 | 37 | 1005.5 |